Погода в Муромском

Россия / Владимирская область     55°33′34″N   42°01′38″E
темп.,
°C
ветер,
м/с
пор.,
м/с
влажн.,
%
обл.,
%
осадки,
мм/ч
давл.,
гПа
погр.,
м
7 мая, пт
пт700:00+11зюз2588100 0.3 1009189
03:00+10зюз3695100 1.7 1009328
06:00+8з4792100 2.2 1010506
09:00+7ююз1289100 5.9 1011188
12:00+11зюз4666100 0.3 10121272
15:00+14з474082 0.3 10122546
18:00+13з34555 0.0 1013163
21:00+8зюз336611 0.0 101525
8 мая, сб
сб800:00+7ююз226985 0.0 101615
03:00+5ю337269 0.0 101641
06:00+6ююв3107636 0.0 1015237
09:00+11ююв61163100 0.0 1015847
12:00+14ююв81255100 0.0 10121368
15:00+15ююв71254100 0.0 10091327
18:00+10ююв61582100 1.0 1008858
21:00+10ююв61491100 2.2 1006888
9 мая, вс
вс900:00+11ю51196100 0.3 1005744
03:00+8юз51092100 0.4 1008578
06:00+9зюз61090100 0.3 1008696
09:00+5зсз5993100 0.4 1013779
12:00+7сз5878100 0.1 10161038
15:00+8сз5769100 0.1 10181273
18:00+8сз4770100 0.0 1021909
21:00+5сз2278100 0.0 102331
10 мая, пн
пн1000:00+4сз348199 0.0 102556
03:00+2ссз34890 0.0 102762
06:00+4с26810 0.0 1030156
09:00+10ссв34590 0.0 1030630
12:00+13ссв34455 0.0 10301338
15:00+15ссв234110 0.0 10301520
18:00+14всв235650 0.0 1030106
21:00+9ю11591 0.0 103110
11 мая, вт
вт1100:00+7в11675 0.0 103210
03:00+6всв117012 0.0 103210
06:00+8всв127165 0.0 103363
09:00+14в245250 0.0 1033540
12:00+17в3442100 0.0 10321244
15:00+18в344391 0.0 10311277
18:00+17вюв246179 0.0 1030163
21:00+11вюв337464 0.0 103034